Overview Statistics Trail Chart Weather Telemetry Raw packets
 

This is the latest recevied weather packets stored in our database for station/object KB1RMA-4. If no packets are shown the sender has not sent any weather packets the latest 10 day(s).

<< 75 76 77 78 79 80 81 >>
Time Temp. Humidity Pressure Rain* Wind** Luminosity Snow
1788095009 20.56° C 62% 1019.6 hPa 0 mm - 122 W/m² -
1788094708 20.56° C 61% 1019.9 hPa 0 mm - 122 W/m² -
1788094404 20.56° C 61% 1019.8 hPa 0 mm - 102 W/m² -
1788094101 20.56° C 61% 1019.9 hPa 0 mm - 101 W/m² -
1788093796 20.56° C 61% 1019.8 hPa 0 mm - 128 W/m² -
1788093493 20° C 64% 1020.1 hPa 0 mm - 150 W/m² -
1788093189 20° C 63% 1019.9 hPa 0 mm - 110 W/m² -
1788092887 20° C 64% 1020 hPa 0 mm - 104 W/m² -
1788092581 19.44° C 65% 1020.2 hPa 0 mm - 124 W/m² -
1788092271 19.44° C 66% 1020.3 hPa 0 mm - 78 W/m² -
1788091970 18.89° C 66% 1020.2 hPa 0 mm - 89 W/m² -
1788091666 18.89° C 66% 1020.1 hPa 0 mm - 100 W/m² -
1788091362 18.89° C 66% 1020 hPa 0 mm - 69 W/m² -
1788091058 18.89° C 67% 1020.3 hPa 0 mm - 65 W/m² -
1788090753 18.33° C 68% 1020.3 hPa 0 mm - 78 W/m² -
1788090450 18.33° C 69% 1020.3 hPa 0 mm - 61 W/m² -
1788090150 17.78° C 70% 1020.3 hPa 0 mm - 60 W/m² -
1788089846 17.22° C 71% 1020.3 hPa 0 mm - 60 W/m² -
1788089545 16.67° C 73% 1020.3 hPa 0 mm - 58 W/m² -
1788089252 16.67° C 74% 1020.2 hPa 0 mm - 55 W/m² -
1788088938 16.67° C 75% 1020.1 hPa 0 mm - 53 W/m² -
1788088634 16.11° C 75% 1020.1 hPa 0 mm - 46 W/m² -
1788088329 16.11° C 76% 1020.3 hPa 0 mm - 34 W/m² -
1788088029 16.11° C 76% 1020.1 hPa 0 mm - 29 W/m² -
1788087726 16.11° C 76% 1020.2 hPa 0 mm - 32 W/m² -

* Rain latest hour (hover to see other rain measurements)
** Current wind speed in m/s (hover to see current wind gust speed)